, AK

(GMT )
Denali Park

Weather History for PAIN - September, 2012

Change the Weather History Date:

Tuesday, September 18, 2012

  Actual Average Record
Temperature  
Mean Temperature 44 °F -  
Max Temperature 46 °F 48 °F 62 °F (2010)
Min Temperature 42 °F 29 °F 14 °F (2004)
Degree Days  
Heating Degree Days 21    
Moisture  
Dew Point 35 °F    
Average Humidity 70    
Maximum Humidity 76    
Minimum Humidity 61    
Precipitation  
Precipitation 0.00 in - - ()
Sea Level Pressure  
Sea Level Pressure 29.74 in    
Wind  
Wind Speed 9 mph (South)    
Max Wind Speed 18 mph    
Max Gust Speed 30 mph    
Visibility 10 miles    
Events      
Averages and records for this station are not official NWS values.
T = Trace of Precipitation, MM = Missing Value Source: NWS Daily Summary

Daily Weather History Graph

Daily Weather History Graph

Search for Another Location

Airport or City:

Trip Planner

Search our weather history database for the weather conditions in past years. The results will help you decide how hot, cold, wet, or windy it might be!

Date:

Astronomy

Sep. 18, 2012 Rise Set
Actual Time 7:29 AM AKDT 8:07 PM AKDT
Civil Twilight 6:41 AM AKDT 8:55 PM AKDT
Nautical Twilight 5:42 AM AKDT 9:53 PM AKDT
Astronomical Twilight 4:33 AM AKDT 11:01 PM AKDT
Moon 12:12 PM AKDT (9/18) 8:00 PM AKDT (9/18)
Length of Visible Light 14h 13m
Length of Day
12h 38m
Waxing Crescent, 10% of the Moon is Illuminated
Sep 18
Waxing Crescent
Sep 22
First Quarter
Sep 29
Full
Oct 7
Last Quarter
Oct 15
New

Hourly Weather History & Observations

Time (AKDT) Temp. Windchill Dew Point Humidity Pressure Visibility Wind Dir Wind Speed Gust Speed Precip Events Conditions
12:16 AM 42.8 °F 36.2 °F 33.8 °F 70% 29.81 in 10.0 mi SSE 12.7 mph 18.4 mph N/A   Overcast
12:36 AM 42.8 °F 36.6 °F 33.8 °F 70% 29.80 in 10.0 mi SSE 11.5 mph 23.0 mph N/A   Overcast
12:56 AM 42.8 °F 36.6 °F 33.8 °F 70% 29.80 in 10.0 mi SSE 11.5 mph 19.6 mph N/A   Overcast
1:16 AM 42.8 °F 37.0 °F 33.8 °F 70% 29.80 in 10.0 mi SSE 10.4 mph 19.6 mph N/A   Overcast
1:36 AM 42.8 °F 35.4 °F 33.8 °F 70% 29.80 in 10.0 mi SSE 15.0 mph 23.0 mph N/A   Overcast
1:56 AM 42.8 °F 38.0 °F 33.8 °F 70% 29.80 in 10.0 mi SSE 8.1 mph 18.4 mph N/A   Overcast
2:16 AM 42.8 °F 37.5 °F 33.8 °F 70% 29.80 in 10.0 mi SE 9.2 mph 20.7 mph N/A   Overcast
2:36 AM 42.8 °F 39.3 °F 33.8 °F 70% 29.79 in 10.0 mi South 5.8 mph - N/A   Overcast
2:56 AM 44.6 °F 41.4 °F 32.0 °F 61% 29.79 in 10.0 mi South 5.8 mph - N/A   Overcast
3:16 AM 42.8 °F 38.0 °F 33.8 °F 70% 29.79 in 10.0 mi SSW 8.1 mph - N/A   Overcast
3:36 AM 42.8 °F 40.1 °F 33.8 °F 70% 29.79 in 10.0 mi South 4.6 mph - N/A   Overcast
3:56 AM 42.8 °F 38.0 °F 33.8 °F 70% 29.77 in 10.0 mi SSW 8.1 mph - N/A   Overcast
4:16 AM 42.8 °F 35.8 °F 35.6 °F 76% 29.76 in 10.0 mi SSW 13.8 mph 21.9 mph N/A   Overcast
4:36 AM 42.8 °F 36.2 °F 33.8 °F 70% 29.76 in 10.0 mi SSW 12.7 mph 24.2 mph N/A   Overcast
4:56 AM 42.8 °F 35.8 °F 33.8 °F 70% 29.75 in 10.0 mi SSW 13.8 mph 20.7 mph N/A   Overcast
5:16 AM 42.8 °F 38.0 °F 33.8 °F 70% 29.75 in 10.0 mi South 8.1 mph 21.9 mph N/A   Overcast
5:36 AM 42.8 °F 40.1 °F 33.8 °F 70% 29.75 in 10.0 mi SSE 4.6 mph - N/A   Overcast
5:56 AM 42.8 °F 41.1 °F 33.8 °F 70% 29.74 in 10.0 mi South 3.5 mph - N/A   Overcast
6:16 AM 42.8 °F 40.1 °F 33.8 °F 70% 29.74 in 10.0 mi South 4.6 mph - N/A   Overcast
6:36 AM 42.8 °F 39.3 °F 33.8 °F 70% 29.73 in 10.0 mi SSW 5.8 mph - N/A   Overcast
6:56 AM 42.8 °F 40.1 °F 33.8 °F 70% 29.72 in 10.0 mi SSW 4.6 mph - N/A   Overcast
7:16 AM 42.8 °F 38.6 °F 33.8 °F 70% 29.72 in 10.0 mi South 6.9 mph - N/A   Overcast
7:36 AM 42.8 °F 38.6 °F 33.8 °F 70% 29.69 in 10.0 mi South 6.9 mph - N/A   Overcast
7:56 AM 42.8 °F 36.6 °F 33.8 °F 70% 29.67 in 10.0 mi SSW 11.5 mph 23.0 mph N/A   Overcast
8:16 AM 42.8 °F 37.5 °F 35.6 °F 76% 29.68 in 10.0 mi South 9.2 mph 21.9 mph N/A   Overcast
8:36 AM 42.8 °F 36.6 °F 35.6 °F 76% 29.68 in 10.0 mi South 11.5 mph 19.6 mph N/A   Overcast
8:56 AM 42.8 °F 35.4 °F 35.6 °F 76% 29.68 in 10.0 mi SSW 15.0 mph 29.9 mph N/A   Overcast
9:16 AM 42.8 °F 36.2 °F 35.6 °F 76% 29.67 in 10.0 mi South 12.7 mph 23.0 mph N/A   Overcast
9:36 AM 42.8 °F 34.5 °F 33.8 °F 70% 29.66 in 10.0 mi South 18.4 mph 27.6 mph N/A   Overcast
9:56 AM 42.8 °F 36.2 °F 33.8 °F 70% 29.67 in 10.0 mi South 12.7 mph 25.3 mph N/A   Overcast
10:16 AM 42.8 °F 35.8 °F 33.8 °F 70% 29.67 in 10.0 mi SSW 13.8 mph 21.9 mph N/A   Overcast
10:36 AM 42.8 °F 35.8 °F 33.8 °F 70% 29.67 in 10.0 mi SSW 13.8 mph 21.9 mph N/A   Overcast
10:56 AM 44.6 °F 38.4 °F 33.8 °F 66% 29.68 in 10.0 mi South 12.7 mph 25.3 mph N/A   Overcast
11:16 AM 42.8 °F 35.1 °F 33.8 °F 70% 29.68 in 10.0 mi South 16.1 mph 24.2 mph N/A   Overcast
11:36 AM 44.6 °F 39.2 °F 33.8 °F 66% 29.69 in 10.0 mi SSW 10.4 mph 23.0 mph N/A   Overcast
11:56 AM 42.8 °F 36.6 °F 33.8 °F 70% 29.69 in 10.0 mi SSW 11.5 mph 19.6 mph N/A   Overcast
12:16 PM 44.6 °F 39.2 °F 35.6 °F 71% 29.69 in 10.0 mi SSW 10.4 mph 20.7 mph N/A   Overcast
12:36 PM 44.6 °F 38.4 °F 35.6 °F 71% 29.69 in 10.0 mi SSW 12.7 mph 21.9 mph N/A   Overcast
12:56 PM 44.6 °F 38.1 °F 35.6 °F 71% 29.70 in 10.0 mi South 13.8 mph 27.6 mph N/A   Overcast
1:16 PM 44.6 °F 39.2 °F 35.6 °F 71% 29.71 in 10.0 mi SSW 10.4 mph 24.2 mph N/A   Overcast
1:36 PM 44.6 °F 39.7 °F 35.6 °F 71% 29.71 in 10.0 mi SSW 9.2 mph 17.3 mph N/A   Overcast
1:56 PM 44.6 °F 40.2 °F 35.6 °F 71% 29.71 in 10.0 mi South 8.1 mph - N/A   Overcast
2:16 PM 44.6 °F 39.2 °F 35.6 °F 71% 29.71 in 10.0 mi SSW 10.4 mph 16.1 mph N/A   Overcast
2:36 PM 44.6 °F 39.7 °F 35.6 °F 71% 29.72 in 10.0 mi South 9.2 mph 19.6 mph N/A   Overcast
2:56 PM 44.6 °F 38.8 °F 35.6 °F 71% 29.73 in 10.0 mi SSW 11.5 mph 24.2 mph N/A   Overcast
3:16 PM 44.6 °F 40.2 °F 35.6 °F 71% 29.74 in 10.0 mi SSW 8.1 mph 20.7 mph N/A   Overcast
3:36 PM 44.6 °F 39.2 °F 35.6 °F 71% 29.74 in 10.0 mi SSW 10.4 mph 16.1 mph N/A   Overcast
3:56 PM 44.6 °F 39.7 °F 35.6 °F 71% 29.73 in 10.0 mi South 9.2 mph 18.4 mph N/A   Overcast
4:16 PM 44.6 °F 38.8 °F 35.6 °F 71% 29.73 in 10.0 mi South 11.5 mph 19.6 mph N/A   Overcast
4:36 PM 46.4 °F 40.7 °F 35.6 °F 66% 29.74 in 10.0 mi SSW 12.7 mph 25.3 mph N/A   Overcast
4:56 PM 46.4 °F 41.5 °F 35.6 °F 66% 29.74 in 10.0 mi SSW 10.4 mph 20.7 mph N/A   Overcast
5:16 PM 46.4 °F 43.5 °F 35.6 °F 66% 29.74 in 10.0 mi South 5.8 mph - N/A   Overcast
5:36 PM 46.4 °F 43.5 °F 35.6 °F 66% 29.75 in 10.0 mi South 5.8 mph - N/A   Overcast
5:56 PM 46.4 °F 42.9 °F 35.6 °F 66% 29.74 in 10.0 mi South 6.9 mph - N/A   Overcast
6:16 PM 46.4 °F 44.3 °F 35.6 °F 66% 29.75 in 10.0 mi South 4.6 mph - N/A   Overcast
6:56 PM 46.4 °F 44.3 °F 35.6 °F 66% 29.74 in 10.0 mi SSW 4.6 mph - N/A   Overcast
7:16 PM 46.4 °F 42.9 °F 35.6 °F 66% 29.74 in 10.0 mi South 6.9 mph - N/A   Overcast
7:36 PM 44.6 °F 40.7 °F 35.6 °F 71% 29.74 in 10.0 mi South 6.9 mph - N/A   Overcast
7:56 PM 44.6 °F 41.4 °F 35.6 °F 71% 29.74 in 10.0 mi SSE 5.8 mph - N/A   Overcast
8:16 PM 44.6 °F 41.4 °F 35.6 °F 71% 29.75 in 10.0 mi South 5.8 mph - N/A   Overcast
8:36 PM 44.6 °F - 35.6 °F 71% 29.76 in 10.0 mi Calm Calm - N/A   Overcast
8:56 PM 44.6 °F - 35.6 °F 71% 29.77 in 10.0 mi Calm Calm - N/A   Overcast
9:16 PM 44.6 °F 42.2 °F 35.6 °F 71% 29.77 in 10.0 mi South 4.6 mph - N/A   Overcast
9:56 PM 44.6 °F 43.1 °F 35.6 °F 71% 29.78 in 10.0 mi SSE 3.5 mph - N/A   Overcast
10:16 PM 44.6 °F - 35.6 °F 71% 29.78 in 10.0 mi Calm Calm - N/A   Overcast
10:36 PM 44.6 °F - 35.6 °F 71% 29.79 in 10.0 mi Calm Calm - N/A   Overcast
10:56 PM 44.6 °F 42.2 °F 35.6 °F 71% 29.79 in 10.0 mi SSE 4.6 mph - N/A   Overcast
11:16 PM 44.6 °F 42.2 °F 35.6 °F 71% 29.80 in 10.0 mi SSE 4.6 mph - N/A   Overcast
11:36 PM 44.6 °F - 35.6 °F 71% 29.81 in 10.0 mi Calm Calm - N/A   Overcast
11:56 PM 44.6 °F 42.2 °F 35.6 °F 71% 29.81 in 10.0 mi SSW 4.6 mph - N/A   Overcast